Vertical_Velocity
-0 -1 -0 -0 -0 -0 -0 -0 -0 -0 -0 -1 -0 -0 -1 -1 -0 -0 -1 0 -1 0 0 -0 0 -0 -1 -3 -2 -3 14 4 -4 -1 -1 -2 -1 -1 -1 -1 -1 1 -1 -1 -0
-1 -1 -1 -0 -0 -0 0 -0 -0 -1 -0 0 -1 -0 -1 -1 -1 -1 -0 -0 -1 1 0 -1 -1 0 -3 -1 1 5 2 -5 4 -3 -1 -2 -2 -2 -2 -2 -1 -1 -1 -2 1
0 -1 -1 -1 -1 -0 -0 -0 -0 -0 -1 0 -0 -0 -1 -1 -1 -1 -0 -1 -0 -0 -0 -0 1 -1 -0 8 -3 3 -5 -1 -2 -3 -3 -2 -2 -2 -4 -3 -1 -2 -1 -2 -1
-0 0 -0 -1 -1 0 0 -1 -0 -0 -1 -0 -0 -0 -1 -1 -1 -2 -1 -1 -0 -1 -0 -0 1 -4 9 4 -3 2 -2 -3 -4 -3 -1 3 5 3 -0 -1 -3 -2 -1 1 -1
0 0 -1 -1 0 -0 -0 0 -0 -1 -1 -0 -0 -1 -1 0 -0 -1 -1 -1 -1 -1 -0 -2 -0 -5 9 -1 -4 8 -1 -4 -4 -1 6 4 -0 2 9 -0 -3 -3 -3 -2 -1
0 0 -0 -0 -0 -0 -0 -0 -1 -0 -2 -1 -1 -1 -0 -0 -1 -1 -0 -1 -1 -1 -1 -1 -3 -4 -1 3 21 -2 -5 -5 -6 3 1 -10 -12 -3 -13 7 -5 -5 -4 -4 -3
-1 -0 -0 1 2 -1 -1 1 0 -0 -1 -1 -1 -1 -1 -1 -1 -1 0 -1 -1 -1 -2 -1 -3 -7 -7 -10 -6 -10 -6 0 4 1 1 -2 22 13 -15 6 -3 -3 -2 -0 -2
-2 -2 -2 -0 -1 -0 -1 -2 -1 0 -1 -1 -0 -1 -1 0 -1 -1 -0 -0 -1 -1 0 -1 -2 -3 7 -5 -8 1 7 18 -21 12 8 -3 155 -11 -1 3 -4 -6 -4 -1 -12
-0 -1 -3 -2 -2 -3 -2 -0 -1 -2 -1 -1 -1 -0 1 -2 -1 -1 -1 0 -0 -1 -1 -0 -1 7 -12 -12 2 -10 -12 29 8 -11 1 7 69 11 3 -5 -7 -6 4 -4 18
-1 -1 -2 -1 -2 -2 -2 -1 -0 -1 -2 -2 -2 -2 0 -3 0 -1 -0 1 1 1 -0 -1 -3 -5 -5 2 22 65 5 0 -7 6 -10 -1 -1 -0 -2 -4 -7 -6 1 3 -28
-0 -0 -1 -1 -2 -1 -1 -1 -2 -4 -1 -3 -1 -3 -3 0 -0 -1 1 0 1 0 -3 -3 -0 9 25 7 -1 -1 -7 -16 -2 -12 -11 -7 -7 -11 -5 -4 -5 -5 1 1 7
-1 -1 -1 0 -1 -2 -1 -1 -0 4 -4 -1 -2 -1 -2 0 -1 -1 0 0 -1 -1 -5 7 -7 7 -1 -6 -7 -2 -17 17 -10 -14 -2 8 2 -0 2 -3 -4 -6 -2 -1 -3
-0 -1 -1 0 -1 -2 -1 0 -0 -0 1 -3 -2 0 -0 1 -3 -1 -1 1 -0 -0 -2 3 -5 5 -2 -7 -12 -5 20 3 0 8 -2 4 26 -27 -1 -2 -3 -1 -4 -4 -4
-2 -1 1 -0 -1 -2 -2 1 -0 0 -1 -5 -3 -3 -1 -0 -3 -1 1 1 -2 -1 -4 -6 15 -5 -1 -10 1 35 0 -8 -11 5 26 -34 13 -27 23 -6 -2 -0 -1 -1 -2
-2 -2 2 0 -0 -1 -1 1 1 -0 6 -16 -2 4 -1 3 -7 2 1 -1 1 -0 -1 -5 2 -4 -6 -3 9 34 -2 -9 -8 -6 7 23 -15 7 12 -12 -3 -3 -4 -1 -2
-2 -4 2 -0 -1 -0 -0 1 1 -0 9 -5 -3 1 -1 0 -0 -2 -0 0 5 -1 -2 -1 10 9 -5 -6 5 -12 -6 -10 -13 -18 -12 8 -3 18 -10 5 -8 -1 -0 0 0
-3 -4 1 -0 -0 -0 1 1 1 3 -9 -12 -3 0 1 1 -0 1 0 0 -0 0 -3 1 -2 -5 -4 2 -1 -6 -8 11 17 12 18 8 -21 16 -3 -4 -3 -1 -3 -1 0
-3 -1 -0 -1 0 -1 0 -0 1 -1 0 -8 -2 -2 -1 0 0 0 -1 -1 -2 1 5 -0 -8 2 3 -5 -2 -9 -8 30 -34 32 17 -21 -6 -12 -1 -2 -2 -4 -2 -2 -1
-3 -1 -0 -1 -0 -0 -0 -1 6 5 -0 1 1 0 1 -1 3 2 0 1 0 1 -3 14 -4 3 -3 -1 -7 16 -17 3 5 4 2 -2 -9 -2 4 -4 -6 -3 -1 -1 -1
-2 -1 -0 -1 -0 -1 -1 2 3 -2 4 9 3 4 1 6 1 -1 -1 2 2 -0 1 4 -1 9 -2 1 -7 -1 21 11 -18 -11 -5 18 40 96 7 4 -5 -2 -6 -0 -0
-2 -2 -1 -1 -1 -1 1 5 -1 1 0 -3 6 6 5 1 2 3 5 2 2 -1 1 -1 13 -5 -1 -7 -7 -9 -8 -14 2 -27 41 28 4 -30 12 -4 2 -3 -3 -3 -0
-1 -1 -1 -1 -1 -0 -1 2 -4 -1 3 -1 4 5 -3 8 0 3 -2 1 -2 3 -1 0 0 4 -8 -13 12 14 23 8 -4 -13 -10 -11 -28 1 2 -9 2 -5 -4 -1 -2
0 -0 -0 -0 1 1 -1 -0 1 -2 0 2 1 3 5 4 3 1 -1 1 1 0 -2 2 -6 20 -8 13 -13 -8 -8 -11 20 29 28 -11 27 0 2 6 -15 -4 -0 1 -1
1 1 -0 -1 0 2 -2 0 1 -1 1 -6 -2 -6 1 1 1 0 5 -8 2 3 -3 -4 -2 15 -5 -13 -4 -10 -10 7 -12 6 -13 -33 137 8 -13 1 -7 -1 -1 -1 -1
1 -2 0 -1 -2 -1 -1 -6 -2 -2 2 -3 1 2 2 0 2 1 -1 -6 -0 0 -0 -2 -4 -0 37 -32 14 30 6 -16 -2 -12 7 76 16 2 -13 -8 -5 -1 -1 -2 1
0 -0 -1 -1 -2 2 2 7 1 5 -4 2 4 8 2 -8 -3 -4 -1 -1 -0 -0 -0 4 -2 -2 -4 30 -8 -7 -11 -8 8 -9 -10 -10 -12 -0 -9 -7 -6 -8 1 -1 -5
2 -0 -0 0 1 3 4 -9 -8 -2 11 -8 -18 -7 3 -9 19 -10 -7 -14 -7 -8 -4 -1 -1 1 2 -10 -2 -9 -13 -9 5 -2 4 -13 7 3 -14 4 -4 -3 -3 -2 2
Height
5903 5906 5907 5909 5910 5912 5913 5914 5914 5915 5915 5915 5915 5915 5915 5915 5915 5916 5917 5919 5919 5921 5922 5924 5926 5927 5926 5928 5930 5933 5939 5938 5933 5927 5924 5922 5920 5918 5916 5914 5912 5910 5908 5908 5906
5902 5904 5906 5908 5909 5911 5912 5913 5914 5915 5915 5916 5915 5915 5915 5915 5915 5916 5917 5917 5918 5920 5922 5924 5926 5927 5929 5931 5933 5932 5937 5934 5934 5927 5924 5923 5920 5918 5917 5916 5914 5913 5911 5909 5908
5901 5902 5904 5906 5908 5910 5912 5913 5914 5914 5915 5915 5915 5915 5915 5915 5915 5915 5916 5917 5918 5920 5922 5924 5927 5928 5932 5937 5935 5936 5934 5935 5932 5926 5925 5924 5921 5919 5917 5916 5915 5914 5913 5911 5910
5900 5902 5903 5905 5907 5909 5911 5912 5913 5914 5914 5915 5915 5915 5915 5915 5917 5915 5916 5916 5917 5919 5922 5924 5927 5930 5938 5939 5935 5936 5932 5932 5928 5927 5927 5925 5923 5921 5919 5918 5916 5915 5914 5912 5910
5899 5901 5902 5904 5906 5908 5910 5911 5912 5913 5914 5914 5914 5914 5915 5915 5915 5915 5915 5915 5917 5919 5921 5924 5929 5933 5940 5938 5936 5939 5933 5931 5929 5929 5927 5925 5924 5923 5921 5917 5915 5914 5912 5911 5910
5898 5900 5902 5903 5905 5907 5909 5910 5911 5912 5913 5913 5914 5914 5914 5915 5915 5915 5915 5915 5917 5918 5921 5924 5926 5929 5937 5939 5936 5936 5934 5930 5929 5929 5926 5924 5924 5924 5922 5918 5915 5913 5911 5910 5909
5896 5898 5900 5902 5904 5906 5908 5909 5909 5910 5911 5912 5913 5913 5913 5914 5914 5915 5916 5916 5917 5918 5921 5924 5926 5929 5936 5936 5934 5934 5933 5932 5931 5930 5927 5920 5920 5923 5921 5919 5917 5914 5912 5911 5909
5894 5896 5898 5900 5902 5903 5905 5907 5907 5908 5909 5910 5911 5912 5913 5913 5913 5914 5916 5916 5917 5918 5921 5923 5926 5929 5934 5935 5935 5938 5937 5930 5930 5931 5930 5924 5888 5929 5922 5920 5917 5914 5912 5908 5903
5891 5893 5895 5897 5899 5900 5902 5903 5904 5906 5907 5908 5910 5910 5911 5912 5913 5913 5915 5916 5917 5919 5920 5923 5926 5933 5934 5936 5940 5939 5935 5933 5935 5931 5930 5929 5929 5925 5922 5919 5916 5913 5913 5909 5905
5887 5889 5891 5893 5896 5897 5898 5899 5901 5902 5903 5905 5907 5909 5909 5910 5911 5912 5913 5915 5916 5918 5920 5923 5928 5934 5939 5940 5937 5937 5939 5939 5939 5931 5929 5931 5931 5926 5922 5920 5917 5914 5914 5911 5906
5882 5884 5886 5888 5891 5892 5894 5895 5898 5899 5900 5902 5904 5905 5906 5908 5909 5910 5911 5913 5915 5917 5919 5923 5932 5938 5935 5937 5932 5935 5938 5940 5938 5932 5928 5931 5931 5926 5923 5921 5919 5916 5914 5913 5911
5877 5879 5881 5883 5885 5887 5888 5890 5892 5896 5896 5897 5899 5902 5902 5904 5906 5907 5909 5912 5913 5915 5920 5929 5929 5930 5931 5932 5934 5937 5939 5939 5934 5929 5928 5931 5929 5928 5925 5923 5920 5918 5916 5914 5912
5871 5873 5875 5877 5880 5882 5883 5885 5887 5890 5891 5892 5894 5897 5899 5901 5901 5903 5906 5908 5910 5913 5920 5926 5931 5926 5928 5932 5933 5938 5941 5935 5933 5930 5930 5933 5930 5923 5925 5924 5922 5919 5917 5913 5912
5865 5867 5870 5871 5875 5876 5878 5880 5883 5885 5887 5887 5889 5891 5894 5895 5897 5899 5902 5905 5907 5911 5919 5925 5926 5923 5928 5929 5935 5933 5932 5932 5930 5928 5913 5924 5932 5912 5918 5924 5921 5919 5916 5912 5909
5858 5860 5863 5865 5868 5870 5873 5875 5878 5881 5884 5879 5884 5888 5890 5892 5893 5896 5898 5901 5904 5907 5916 5921 5923 5922 5925 5929 5932 5934 5928 5930 5929 5928 5933 5934 5933 5922 5921 5921 5920 5917 5914 5910 5907
5852 5853 5856 5858 5861 5864 5867 5870 5874 5878 5878 5877 5880 5883 5885 5887 5889 5891 5894 5897 5900 5902 5906 5914 5920 5922 5921 5924 5927 5927 5927 5928 5929 5931 5934 5928 5931 5932 5922 5923 5918 5916 5913 5908 5904
5845 5847 5850 5852 5855 5858 5861 5865 5869 5871 5870 5873 5876 5879 5881 5883 5885 5887 5890 5893 5897 5899 5902 5906 5909 5912 5916 5921 5922 5923 5928 5931 5929 5928 5931 5930 5931 5928 5923 5921 5918 5916 5911 5906 5901
5839 5841 5844 5847 5849 5852 5855 5859 5863 5865 5868 5867 5872 5874 5877 5880 5881 5883 5886 5889 5892 5896 5903 5903 5905 5908 5910 5913 5921 5922 5927 5930 5925 5932 5930 5928 5929 5922 5919 5917 5915 5913 5909 5905 5900
5834 5836 5839 5841 5843 5846 5850 5853 5858 5860 5860 5865 5868 5870 5874 5876 5879 5880 5883 5886 5889 5893 5899 5906 5904 5907 5906 5910 5917 5925 5926 5928 5929 5931 5931 5930 5923 5919 5916 5914 5912 5910 5908 5905 5901
5829 5831 5833 5835 5837 5840 5844 5848 5850 5851 5856 5861 5864 5868 5870 5874 5875 5877 5879 5883 5886 5889 5893 5902 5904 5906 5905 5910 5914 5918 5923 5926 5927 5928 5927 5926 5921 5897 5912 5911 5910 5908 5906 5904 5902
5824 5826 5828 5830 5832 5835 5839 5842 5843 5846 5851 5855 5860 5865 5869 5872 5872 5876 5878 5880 5882 5884 5888 5894 5903 5904 5903 5904 5911 5915 5916 5919 5923 5922 5925 5923 5916 5910 5908 5905 5907 5905 5903 5902 5900
5819 5822 5823 5824 5828 5830 5833 5835 5837 5841 5846 5849 5854 5857 5862 5870 5870 5872 5874 5877 5876 5880 5884 5890 5900 5903 5903 5906 5911 5913 5918 5920 5921 5921 5920 5918 5905 5908 5910 5906 5902 5901 5900 5899 5898
5814 5816 5818 5820 5822 5824 5827 5830 5832 5835 5839 5844 5849 5854 5858 5864 5868 5870 5873 5872 5872 5876 5880 5887 5892 5902 5904 5908 5906 5907 5911 5913 5918 5921 5914 5914 5911 5907 5905 5906 5901 5898 5898 5897 5895
5810 5811 5813 5815 5816 5819 5820 5824 5826 5829 5834 5837 5843 5847 5854 5857 5862 5865 5870 5865 5869 5873 5875 5880 5890 5899 5903 5905 5906 5905 5908 5912 5913 5916 5912 5911 5899 5900 5897 5902 5898 5897 5895 5894 5893
5804 5805 5807 5808 5809 5811 5813 5815 5819 5824 5829 5833 5840 5846 5852 5856 5859 5863 5865 5864 5866 5868 5872 5877 5883 5893 5898 5894 5902 5903 5907 5908 5909 5909 5910 5912 5906 5905 5897 5896 5894 5893 5892 5892 5891
5798 5800 5801 5802 5803 5805 5809 5812 5816 5820 5822 5830 5837 5844 5848 5854 5859 5860 5863 5863 5863 5867 5870 5875 5881 5888 5892 5896 5897 5899 5901 5902 5904 5903 5904 5905 5905 5896 5894 5892 5889 5887 5888 5888 5888
5792 5794 5795 5797 5798 5802 5807 5806 5809 5813 5821 5823 5827 5832 5842 5848 5843 5854 5861 5863 5864 5864 5867 5872 5879 5883 5887 5890 5892 5891 5893 5896 5899 5900 5901 5900 5892 5891 5888 5890 5886 5883 5883 5883 5883